DECAYED
Showing default

SJ-19, 61444 (Decayed)

Orbit data source: Space-Track

SJ-19, 61444 was a payload satellite owned by CASC (CN) in LEO that was launched on Fri, 27 Sep 2024 UTC via a CHANG ZHENG 2D launch vehicle from the Jiuquan Satellite Launch Center, China (JSC). Payloads include a variety of satellites, spacecraft, and rockets equipped with specific instruments for various scientific and technological missions. These include communications satellites like Starlink; space stations such as the ISS; scientific satellites like the Hubble; Earth observation satellites from companies like Planet Labs, Umbra, and HawkEye 360; GPS; miniature CubeSats for education and research; and military/defense satellites.

Loading next visibility...
SJ-19 details
Identifier
61444, 2024-177A
Orbit
Decayed
Last TLE update2 months ago
Origin
Flag of CNCASC (CN / PRC)
ManufacturerCAST
MissionDecayed spacecraft
Bus & MotorFSW-1, Unknown motor
Mass~0 kg wet, ~1,200 kg dry
Launch date (UTC)
2024-09-27 (3 months ago)
Launch vehicle
CHANG ZHENG 2D
Launch site
Jiuquan Satellite Launch Center, China (JSC)
Object type
Payload
Rocket body
Debris
Shape & HBRUnknown
Radar Cross SectionLarge (>1 m²)

Expand to show TLE details & history

TLE from 2 months ago
0 SJ-19
1 61444U 24177A   24284.70845001  .00015258  00000-0  90833-4 0  9993
2 61444  41.6010  76.8644 0006944  34.8351 325.2950 15.77608314  2241
Epoch: 2024-10-10T17:00Z
Definitive object data (Epoch: 2024-10-10T17:00:10.08Z)
Latitude-0.00001°
Longitude162.03327°
Altitude332.999 km
Speed7.713 km/s
True Right ascension05h 07m 27s
True Declination0° 00' 00"
Sunlit
Object was in full shadow at TLE epoch
Visualization TLE readout
Latitude-6.43868°
Longitude66.79976°
Altitude334.361 km
Speed7.708 km/s
Apparent Right ascension22h 55m 03s
Apparent Declination-22° 37' 56"
Sunlit
Object is in full shadow
Visualization observer readout
Local Sidereal Time11:06:41
Azimuth8.981° NNE
Elevation-72.541°
Doppler factor1
Orbital elements
Apogee altitude344.11 km
Perigee altitude334.781 km
Semi-major axis6,717.583 km
Eccentricity0.0006944
Inclination41.601°
RAAN76.8644°
Arg. of periapsis34.8351°
True anomaly325.24966°
Mean anomaly325.295°
Eccentric anomaly325.27233°
Mean motion3.94206 °/min
BSTAR0.000090833
Orbital period91.32 mins
Loading maneuver chart data...
Loading historical data...
Loading historical data...
Loading historical data...
Loading historical data...
Loading historical data...
Loading historical data...
Loading historical data...
Other satellites on launch #177 in the year 2024 (2024-09-27 UTC)

SJ-19 Visibility forecast

Observer location: undefined°, undefined

Span
Click to sort rows by Start time (UTC) header in descending order
Start Az.
Max El. time (UTC)
Max El. Az.
Max El.
End time (UTC)
End Az.
4 mins2024-12-22 03:31:57.438Z217.026° SW2024-12-22 03:33:57.438Z140.86° SSE30.27°2024-12-22 03:35:57.438Z89.445° E
4 mins2024-12-22 05:07:57.438Z276.194° WNW2024-12-22 05:08:57.438Z310.57° NW40.847°2024-12-22 05:11:57.438Z76.077° E
|